www.pogodaiklimat.ru

Погода и климат >> Архив погоды >> Туркменистан >> Теджен


ПОГОДА в Теджене

  • Прогноз погоды в Теджене
  • Монитор погоды в Теджене

АРХИВ ПОГОДЫ в Теджене

Время (UTC), дата Ветер
(напр.,м/с)
 
Видим.   Явления Облачность Т
(С)
Тd
(С)
f
(%)
Тe
(С)
Тes
(С)
Комфортность P
(гПа)
Po
(гПа)
Тmin
(С)
Tmax
(С)
R
(мм)
R24
(мм)
S
(см)
09 9.09 С 3 10 км 6/0
[Ac trans Ci fib]
+27.4 +4.8 24 +26 +35 жарко 1019.0 997.7
12 9.09 С 1 10 км 5/5 1000 м
[Sc]
+27.7 +3.8 22 +26 +29 жарко 1017.9 996.6
15 9.09 З 1 10 км 4/0
[Ac lent]
+23.6 +10.6 44 +25 +25 комфорт 1018.3 996.7 +28.3
18 9.09 СВ 1 10 км 9/9 1000 м
[Sc]
+20.0 +10.9 56 +23 +23 комфорт 1019.4 997.5 +28.3
21 9.09 В 1 10 км 10/10 1000 м
[Sc]
+19.8 +9.0 50 +22 +22 комфорт 1019.6 997.7
00 10.09 В 1 10 км ясно +15.6 +6.7 55 +16 +16 1020.2 998.0
03 10.09 В 3 10 км ясно +16.0 +4.0 45 +16 +17 1021.4 999.2 +13.8
06 10.09 ЮВ 3 10 км ясно +25.3 +3.8 25 +24 +34 комфорт 1021.9 1000.3 +13.8
09 10.09 В 3 10 км ясно +27.6 +3.8 22 +26 +38 жарко 1020.1 998.8
12 10.09 СВ 2 10 км ясно +28.1 +3.8 21 +27 +31 жарко 1019.2 997.9
15 10.09 СВ 1 10 км ясно +22.0 +9.7 46 +24 +24 комфорт 1019.3 997.6 +28.4
18 10.09 В 1 10 км ясно +26.5 +8.2 31 +26 +26 жарко 1020.2 998.1 +28.4
21 10.09 В 1 10 км ясно +15.2 +2.7 43 +16 +16 1020.2 998.0
00 11.09 ЮВ 1 10 км ясно +13.2 +3.4 51 +14 +14 1020.6 998.2
03 11.09 штиль 0 10 км ясно +13.4 +5.8 60 +13 +15 1022.4 999.9 +11.6
06 11.09 В 1 10 км ясно +24.8 +5.0 28 +24 +38 комфорт 1021.5 999.9 +11.6
09 11.09 С 2 10 км ясно +27.5 +1.7 19 +26 +40 жарко 1020.4 999.0
12 11.09 С 3 10 км ясно +28.0 +2.5 19 +26 +29 жарко 1019.0 997.7
15 11.09 штиль 0 10 км ясно +22.8 +9.5 43 +24 +24 комфорт 1019.6 998.0 +28.5
18 11.09 С 1 10 км ясно +17.4 +7.7 53 +18 +18 1021.1 999.0 +28.5
21 11.09 З 1 10 км ясно +14.8 +5.6 54 +15 +15 1021.5 999.2
00 12.09 З 1 10 км ясно +12.7 +4.1 56 +13 +13 1021.3 998.8
03 12.09 З 1 10 км ясно +13.2 +3.4 51 +14 +15 1021.5 999.0 +12.1
06 12.09 З 1 10 км ясно +24.9 +4.3 26 +24 +38 комфорт 1020.6 999.0 +12.1
09 12.09 СЗ 2 10 км ясно +28.4 +2.7 19 +26 +40 жарко 1018.6 997.3
12 12.09 СВ 2 10 км ясно +29.3 +0.6 16 +27 +31 жарко 1017.2 996.0
15 12.09 СЗ 1 10 км ясно +23.4 +5.6 32 +24 +24 комфорт 1017.5 995.9 +29.7
18 12.09 С 2 10 км ясно +18.8 +4.6 39 +20 +20 1017.8 995.9 +29.7
21 12.09 З 1 10 км ясно +15.0 +4.3 49 +16 +16 1018.1 995.9
00 13.09 СЗ 1 10 км 4/0
[Ac trans]
+13.2 +3.4 51 +14 +14 1017.7 995.4
03 13.09 СЗ 2 10 км 3/0
[Ac trans]
+13.8 +4.3 53 +13 +14 1018.6 996.3 +12.2
06 13.09 СЗ 3 10 км 3/0
[Ac trans]
+24.2 +5.0 29 +24 +32 комфорт 1019.2 997.6 +12.2
09 13.09 СЗ 3 10 км 1/0
[Ac trans]
+30.0 +1.5 16 +27 +38 жарко 1016.9 995.8
12 13.09 С 3 10 км 1/0
[Ac trans]
+30.1 -0.2 14 +27 +30 жарко 1016.5 995.4
15 13.09 СЗ 2 10 км 3/0
[Ci fib]
+23.7 +6.7 33 +24 +24 комфорт 1016.5 995.0 +30.6
18 13.09 З 2 10 км ясно +18.4 +5.0 41 +19 +19 1017.5 995.5 +30.6
21 13.09 З 2 10 км 8/0
[Ac trans]
+16.6 +5.6 48 +17 +17 1017.6 995.5
00 14.09 СЗ 2 10 км 4/0
[Ac trans]
+16.0 +6.4 53 +16 +16 1017.7 995.5
03 14.09 З 3 10 км 3/0
[Ci fib]
+16.4 +8.6 60 +16 +17 1018.9 996.8 +13.8
06 14.09 СЗ 3 10 км ясно +24.9 +9.2 37 +26 +35 жарко 1020.3 998.7 +13.8
09 14.09 С 3 10 км ясно +28.7 +4.0 21 +27 +38 жарко 1019.2 998.0
12 14.09 СЗ 4 10 км 3/0
[Ci fib]
+29.4 +6.5 24 +28 +31 жарко 1016.8 995.7
15 14.09 СЗ 2 10 км 3/0
[Ci fib]
+24.4 +8.9 37 +25 +25 комфорт 1018.1 996.6 +30.0
18 14.09 СЗ 1 10 км 4/0
[Ac trans]
+19.9 +8.6 48 +22 +22 комфорт 1019.6 997.7 +30.0
21 14.09 З 1 10 км 6/6 1000 м
[Sc]
+19.8 +8.8 49 +22 +22 комфорт 1019.8 997.9
00 15.09 СЗ 1 10 км 1/0
[Ci fib]
+16.2 +9.7 65 +17 +17 1020.2 998.1
03 15.09 СЗ 1 10 км 3/3 1000 м
[Sc]
+15.4 +9.2 67 +16 +17 1020.4 998.2 +14.8
06 15.09 СВ 1 10 км 3/0
[Ac trans]
+26.1 +7.0 30 +26 +37 жарко 1020.6 999.1 +14.8
09 15.09 СВ 1 10 км ясно +29.1 +5.8 23 +28 +44 жарко 1019.4 998.2
12 15.09 С 2 10 км ясно +30.3 +8.0 25 +29 +33 жарко 1018.0 996.9
15 15.09 штиль 0 10 км ясно +23.6 +11.1 45 +25 +25 комфорт 1018.5 996.9 +31.0
18 15.09 В 1 10 км ясно +18.3 +10.3 60 +20 +20 1019.5 997.6 +31.0
21 15.09 Ю 1 10 км ясно +18.6 +10.9 61 +20 +20 1019.5 997.6
00 16.09 ЮВ 2 10 км ясно +16.0 +7.6 57 +16 +16 1019.5 997.3
03 16.09 В 1 10 км ясно +16.6 +8.0 57 +18 +19 1019.9 997.8 +13.6

 

Местоположение метеостанции Теджен (Ахалский велаят, Туркменистан): широта 37.38 долгота 60.52 высота над уровнем моря 186 м.

В архиве по умолчанию представлена погода в Теджене за последнюю неделю. Архивные данные за месяц целиком и за предыдущие месяцы, начиная с января 2011 года, Вы можете получить, выбрав интересующий диапазон дат из раскрывающегося списка и нажав кнопку "Ввод!".


*Определитесь, кто Вы:
робот инопланетянин человек

Внимание! Время в таблицах - всемирное. Для получения местного времени необходимо прибавить поправку, которая равна 5 ч.

Смотрите также архив погоды в соседних городах и на ближайших метеорологических станциях:

Погода в Каке (Ахалский велаят, Туркменистан) (79 км)
Погода в Серахсе (Иран) (111 км)
Погода в Сарагте (Ахалский велаят, Туркменистан) (113 км)
Погода в Мешхеде (Иран) (147 км)
Погода в Байрамалы (Ахалский велаят, Туркменистан) (149 км)
Погода в Елетене (Марыйский велаят, Туркменистан) (168 км)
Погода в Кучане (Иран) (182 км)
Погода в Ашхабаде (город Ашхабад, Туркменистан) (202 км)
Погода в Багтыярлыке (Марыйский велаят, Туркменистан) (215 км)
Погода в Акмолле (Ахалский велаят, Туркменистан) (250 км)

Пояснения к столбцам:

Ветер - указаны скорость ветра в м/с - средняя за 10 мин, порывы в срок и между сроками (в фигурных скобках) и направление, откуда дует ветер: С - северный, СВ - северо-восточный, В - восточный, ЮВ - юго-восточный, Ю - южный, ЮЗ - юго-западный, З - западный, СЗ - северо-западный.
Видимость - горизонтальная дальность видимости в метрах или километрах. При видимости от 1 до 10 км при отсутствии осадков обычно наблюдается дымка, при ухудшении видимости до 1 км и менее - туман. В сухую погоду видимость может ухудшаться дымом, пылью или мглою.
Явления - указаны атмосферные явления, наблюдавшиеся в срок или в последний час перед сроком; фигурными скобками обозначены явления, наблюдавшиеся между сроками (за 1-3 часа до срока); квадратными скобками обозначены град или гололедные отложения с указанием их диаметра в мм.
Облачность - указаны через наклонную черту общая и нижняя облачность в баллах и высота нижней границы облаков в метрах; квадратными скобками обозначены формы облаков: Ci - перистые, Cs - перисто-слоистые, Cc - перисто-кучевые, Ac - высококучевые, As - высокослоистые, Sc - слоисто-кучевые, Ns - слоисто-дождевые, Cu - кучевые, Cb - кучево-дождевые. Подробнее классификацию облаков см. в Атласе облаков (PDF).
T - Температура воздуха - температура, измеренная на высоте 2 м над землей.
Td - Температура точки росы - температура, при понижении до которой содержащийся в воздухе водяной пар достигнет насыщения.
f - Относительная влажность воздуха - влажноcть воздуха, измеренная на высоте 2 м над землей.
Te - Эффективная температура - температура, которую ощущает одетый по сезону человек в тени. Характеристика душности погоды. При расчете учитывается влияние влажности воздуха и скорости ветра на теплоощущения человека.
Tes - Эффективная температура на солнце - температура, которую ощущает человек, с поправкой на солнечный нагрев. Характеристика знойности погоды. Зависит от высоты солнца над горизонтом, облачности и скорости ветра. Ночью, в пасмурную погоду, а также при ветре 12 м/с и более поправка равна нулю.
P - Атмосферное давление - приведенное к уровню моря атмосферное давление.
Po - Атмосферное давление - измеренное на уровне метеостанции атмосферное давление.
Tmin - Минимальная температура - минимум температуры воздуха на высоте 2 м над землей.
Tmax - Максимальная температура - максимум температуры воздуха на высоте 2 м над землей.
R - Количество осадков - Количество выпавших осадков за период времени, мм. При наведении курсора мыши на число - период времени, за который выпало указанное количество осадков.
R24 - Количество осадков - Количество выпавших осадков за 24 часа, мм.
S - Снежный покров - Высота снежного покрова, см. При наведении курсора мыши на число - состояние снежного покрова и степень покрытия местности в баллах.